Starlink 11082

operational
NORAD ID: 59711 Int'l Des: 2024-088 Owner: SPXS Country: US Constellation: starlink
LEOCIRCULAR

Über Starlink 11082

Beschreibung wird geladen...

Live-Position

3D-Globus wird geladen...

Nächste Überflüge

Höhenverlauf

Altitude vs Time

uPlot chart will show altitude changes over time

Zweizeiliger Elementsatz

1 59711U 24088D 26034.52494385 -.00000903 00000-0 -25938-5 0 9996
2 59711 53.1602 134.8866 0001434 64.0511 296.0655 15.69708922100909
Epoch: 3. Feb. 2026 • Age: 21 hours

Aktueller Status

Höhe 366.0 km
Geschwindigkeit 7.69 km/s
Subsatellitenpunkt -19.86°S, 51.69°E
Startdatum 10. Mai 2024
Alter 1.7 years
Typ internet

Technische Details

Klassifizierung Payload
Masse 960.00 kg
Trockenmasse 910.00 kg
Gesamtmasse 960.00 kg
Länge 0.30 m
Durchmesser 4.10 m
Spannweite 29.00 m
Form Box + pan
Hersteller SPXS
Bus-Typ Starlink V2MD
Phasenstatus In Orbit
Besitzer/Staat SPXS/US

Große Konstellationen

Loading constellations...